Regional Weather Roundup
Issued by NWS

Home | Current Version | Previous Version | Graphics & Text | Print | Product List | Glossary On
Versions: 1 2 3 4 5 6 7 8 9 10 11 12 13 14 15 16 17 18 19 20 21 22 23 24 25 26 27 28 29 30 31 32 33 34 35 36 37 38 39 40 41 42 43 44 45 46 47 48 49 50
000
ASUS43 KTOP 051859
RWRKS

WEATHER ROUNDUP FOR KANSAS
NATIONAL WEATHER SERVICE GOODLAND KS
200 PM CDT THU MAY 05 2016

NOTE:  "FAIR" INDICATES FEW OR NO CLOUDS BELOW 12,000 FEET WITH NO
SIGNIFICANT WEATHER AND/OR OBSTRUCTIONS TO VISIBILITY.

KSZ001>006-013>018-027>032-041>047-052000-
NORTHWEST KANSAS

CITY           SKY/WX    TMP DP  RH WIND       PRES   REMARKS
GOODLAND       SUNNY     80  43  26 S16G24    30.07F
HAYS           SUNNY     75  46  35 SE12      30.08F
HILL CITY      SUNNY     80  47  31 S12       30.08F
RUSSELL        SUNNY     76  45  33 SE8       30.07F
$$

KSZ061>065-074>080-084>089-052000-
SOUTHWEST KANSAS

CITY           SKY/WX    TMP DP  RH WIND       PRES   REMARKS
DODGE CITY     SUNNY     76  47  35 SE10G18   30.09F
ELKHART          N/A     80  45  29 S7          N/A
GARDEN CITY    SUNNY     79  45  29 S14G22    30.07F
GREAT BEND     SUNNY     75  41  29 SE5       30.08F
LIBERAL        SUNNY     81  48  32 S14       30.08F
$$

KSZ066>073-081>083-090>101-052000-
SOUTHEAST KANSAS

CITY           SKY/WX    TMP DP  RH WIND       PRES   REMARKS
CHANUTE        SUNNY     75  41  29 N12       30.08F
COFFEYVILLE    SUNNY     76  43  30 N9        30.08F
HUTCHINSON     SUNNY     78  43  28 CALM      30.09F
MEDICINE LODGE   N/A     76  39  26 VRB3      30.08F
NEWTON         SUNNY     75  37  25 NW8       30.12F
PARSONS        SUNNY     75  43  31 N10G16    30.09F
WICHITA INTL   MOSUNNY   76  39  26 E3        30.08F
WICHITA JABRA  SUNNY     76  41  28 VRB5      30.08F
WICHITA MCCONL SUNNY     77  39  25 VRB1      30.08F HAZE
WINFIELD       SUNNY     77  41  27 VRB3      30.30R
$$

KSZ007>012-019>026-033>040-048>060-102>105-052000-
NORTHEAST KANSAS

CITY           SKY/WX    TMP DP  RH WIND       PRES   REMARKS
CONCORDIA      SUNNY     75  35  23 VRB3      30.07F
EMPORIA        SUNNY     74  40  29 W7        30.08F
LAWRENCE       SUNNY     74  42  31 MISG      30.07F
MANHATTAN      SUNNY     76  35  22 SE3       30.07F
OLATHE IND     SUNNY     72  40  31 N8        30.08F
OLATHE EXE     SUNNY     70  35  27 N7        30.08F
SALINA         SUNNY     77  37  23 CALM      30.09F
TOPEKA BILLARD SUNNY     75  42  30 NE12      30.07F
TOPEKA FORBES  SUNNY     75  42  30 NE6       30.07F
$$




USA.gov is the U.S. government's official web portal to all federal, state and local government web resources and services.